Regional Weather Roundup
Issued by NWS

Home | Current Version | Previous Version | Text Only | Print | Product List | Glossary Off
Versions: 1 2 3 4 5 6 7 8 9 10 11 12 13 14 15 16 17 18 19 20 21 22 23 24 25 26 27 28 29 30 31 32 33 34 35 36 37 38 39 40 41 42 43 44 45 46 47 48 49 50

000
ASUS43 KDMX 162201
RWRIA

WEATHER ROUNDUP FOR IOWA
NATIONAL WEATHER SERVICE DES MOINES IA
400 PM CST FRI FEB 16 2018

NOTE: "FAIR" INDICATES FEW OR NO CLOUDS BELOW 12,000 FEET WITH NO
SIGNIFICANT WEATHER AND/OR OBSTRUCTIONS TO VISIBILITY.

* - THESE STATIONS ARE NOT NWS STATIONS...THUS NOT UNDER NWS
QUALITY CONTROL.  THEY ALSO DO NOT REPORT WEATHER SUCH
AS PRECIPITATION OR FOG.

IAZ001>003-012>014-020>022-031>034-043>046-162300-
   NORTHWEST IOWA

CITY           SKY/WX    TMP DP  RH WIND       PRES   REMARKS
CARROLL *      SUNNY     28  14  54 SW9       30.26F WCI  20
CHEROKEE *     SUNNY     24  10  56 S16       30.23F WCI  10
DENISON *      SUNNY     27  12  54 SW12      30.27F WCI  16
LE MARS *      CLOUDY    23  12  63 S17G24    30.20F WCI   9
ORANGE CITY *  CLOUDY    21  12  68 S15       30.18F WCI   8
SHELDON *      SUNNY     18   7  62 S17G24    30.17F WCI   2
SIOUX CITY     SUNNY     25  13  60 S17       30.24F WCI  12
SPENCER        SUNNY     20   8  60 S12       30.19F WCI   8
STORM LAKE *   MIX PCPN  23  10  58 S15       30.21F WCI  10
$$

IAZ055>058-069>071-079>083-090>094-162300-
   SOUTHWEST IOWA

CITY           SKY/WX    TMP DP  RH WIND       PRES   REMARKS
ATLANTIC *     SUNNY     28  12  50 SW8       30.29F WCI  20
AUDUBON *      SUNNY     28  10  47 SW12      30.29F WCI  18
CLARINDA *     SUNNY     32  10  40 VRB5      30.35F WCI  27
COUNCIL BLFS * SUNNY     28  12  50 S8        30.26F WCI  20
CRESTON *      SUNNY     28   9  43 SW8       30.32F WCI  20
HARLAN  *      SUNNY     28  12  50 S10       30.30F WCI  19
LAMONI         SUNNY     31   7  36 MISG      30.32F
RED OAK *      SUNNY     30  10  43 S8        30.30F WCI  23
SHENANDOAH *   SUNNY     32  12  43 S9        30.32F WCI  24
$$

IAZ047>049-059>061-072>074-084-162300-
   CENTRAL IOWA

CITY           SKY/WX    TMP DP  RH WIND       PRES   REMARKS
AMES           SUNNY     22   7  52 W7        30.32F WCI  13
ANKENY *       SUNNY     25   3  39 VRB7      30.34F WCI  17
BOONE *        SUNNY     23  10  58 VRB7      30.28F WCI  15
CHARITON *     SUNNY     28   0  29 W5        30.32F WCI  23
DES MOINES     MOSUNNY   26   7  44 W3        30.33F
GRINNELL*      SUNNY     23   7  50 W6        30.33F WCI  16
KNOXVILLE *    SUNNY     25   1  36 VRB5      30.32F WCI  19
MARSHALLTOWN   SUNNY     21   7  54 W7        30.32F WCI  12
NEWTON *       SUNNY     23   5  46 W8        30.33F WCI  14
PELLA *        SUNNY     27   1  33 W6        30.35F WCI  20
$$

IAZ004>006-015-016-023>025-035-036-162300-
   NORTH CENTRAL IOWA

CITY           SKY/WX    TMP DP  RH WIND       PRES   REMARKS
CLARION *      SUNNY     18   9  68 SW12      30.29F WCI   5
ESTHERVILLE    SUNNY     19   9  65 S15       30.19F WCI   5
FORT DODGE *   SUNNY     21   9  59 S10       30.28F WCI  10
MASON CITY     SUNNY     20   8  60 SW12      30.29F WCI   8
FOREST CITY *  FAIR      23  12  63 SW10      30.26F WCI  12
WEBSTER CITY * SUNNY     19   9  63 SW8       30.28F WCI   9
IOWA FALLS *   FAIR      19   8  60 SW8       30.32F WCI   9
$$

IAZ007>011-017>019-026>030-037>042-050>054-066-162300-
   NORTHEAST IOWA

CITY           SKY/WX    TMP DP  RH WIND       PRES   REMARKS
CEDAR RAPIDS   FAIR      24   9  52 NW8       30.32F WCI  15
CHARLES CITY * FAIR      19   5  53 SW12      30.30S WCI   7
CLINTON *      FAIR      22  11  62 W15       30.33S WCI   9
DECORAH *      FAIR      19   3  49 W6G12     30.27F WCI  11
DUBUQUE        FAIR      19   5  54 W13       30.30R WCI   6
MONTICELLO *   FAIR      21   5  49 W10       30.33F WCI  10
OELWEIN *      FAIR      18   5  57 W9        30.31F WCI   6
WATERLOO       FAIR      17   7  64 W8        30.32F WCI   7
$$

IAZ064-065-067-068-078-162300-
   EAST CENTRAL IOWA

CITY           SKY/WX    TMP DP  RH WIND       PRES   REMARKS
DAVENPORT      FAIR      24   6  46 W12       30.35S WCI  13
IOWA CITY      FAIR      26   8  46 SW6       30.36F WCI  19
MT. PLEASANT * SUNNY     28   9  43 N7        30.35S WCI  21
MUSCATINE *    FAIR      27   9  46 NW6       30.36F WCI  20
QUAD CITIES    FAIR      27   9  46 W10       30.34S WCI  17
$$

IAZ062-063-075>077-085>089-095>099-162300-
   SOUTHEAST IOWA

CITY           SKY/WX    TMP DP  RH WIND       PRES   REMARKS
BURLINGTON     SUNNY     29   8  41 NW6       30.34F WCI  23
FAIRFIELD *    SUNNY     25   7  46 NW8       30.34S WCI  16
FORT MADISON * SUNNY     28   9  43 CALM      30.35S
KEOKUK *       SUNNY     30   9  40 N6        30.35S WCI  24
OSKALOOSA *    FAIR      22   8  55 N3        30.34F
OTTUMWA        SUNNY     26   4  38 W5        30.34F WCI  20
WASHINGTON *   SUNNY     23  10  58 NW9       30.36F WCI  13
$$

ABBREVIATIONS USED IN REMARKS
   TC - TEMPERATURES IN CELSIUS
  WCI - WIND CHILL INDEX
   HX - HEAT INDEX
  VSB - VISIBILITY
$$





USA.gov is the U.S. government's official web portal to all federal, state and local government web resources and services.